Location: Lane
(33.5226°N, 79.8788°W)
Time: 07:20:20
(UTC+00:00)

Explorer 7 - Pass Details

Date: 10 October 2022
Orbit: 481 x 665 km, 50.3° (Epoch: 28 November)

Event Time Altitude Azimuth Distance (km) Brightness Sun altitude
Rises 14:52:11 0° 289° (WNW) 2,987 10.1 38.6°
Reaches altitude 10° 14:55:47 10° 316° (NW) 2,087 9.4 39.2°
Maximum altitude 14:58:06 13° 345° (NNW) 1,875 9.2 39.5°
Drops below altitude 10° 15:00:25 10° 14° (NNE) 2,086 9.6 39.8°
Sets 15:04:01 0° 41° (NE) 2,985 10.5 40.3°
